Weather History for Cheboygan, MI

Change the Weather History Date:

Wednesday, February 27, 2013

  Actual Average (KPLN) Record (KPLN)
Temperature  
Mean Temperature 32 °F -  
Max Temperature 33 °F 32 °F 46 °F (1983)
Min Temperature 30 °F 10 °F -27 °F (2014)
Degree Days  
Heating Degree Days 34    
Moisture  
Dew Point 30 °F    
Average Humidity 94    
Maximum Humidity 99    
Minimum Humidity 82    
Precipitation  
Precipitation 0.00 in - - ()
Sea Level Pressure  
Sea Level Pressure 29.71 in    
Wind  
Wind Speed 17 mph (NE)    
Max Wind Speed 24 mph    
Max Gust Speed 31 mph    
Visibility 5 miles    
Events Snow    
Averages and records for this station are not official NWS values.
T = Trace of Precipitation, MM = Missing Value Source: NWS Daily Summary

Daily Weather History Graph

Daily Weather History Graph

Search for Another Location

Airport:

Trip Planner

Search our weather history database for the weather conditions in past years. The results will help you decide how hot, cold, wet, or windy it might be!

Date:

Astronomy

Feb. 27, 2013 Rise Set
Actual Time 7:19 AM EST 6:22 PM EST
Civil Twilight 6:49 AM EST 6:52 PM EST
Nautical Twilight 6:15 AM EST 7:26 PM EST
Astronomical Twilight 5:41 AM EST 8:01 PM EST
Moon 8:53 PM EST (2/27) 7:46 AM EST (2/27)
Length of Visible Light 12h 02m
Length of Day
11h 02m
Waning Gibbous, 96% of the Moon is Illuminated
Feb 27
Waning Gibbous
Mar 4
Last Quarter
Mar 11
New
Mar 19
First Quarter
Mar 27
Full

Hourly Weather History & Observations

Time (EST) Temp. Windchill Dew Point Humidity Pressure Visibility Wind Dir Wind Speed Gust Speed Precip Events Conditions
12:15 AM 31.6 °F 18.7 °F 27.1 °F 83% 29.80 in 10.0 mi ENE 23.0 mph 28.8 mph N/A   Scattered Clouds
12:35 AM 31.6 °F 19.3 °F 27.1 °F 83% 29.79 in 10.0 mi ENE 20.7 mph 28.8 mph N/A   Mostly Cloudy
12:55 AM 31.8 °F 20.2 °F 27.3 °F 83% 29.78 in 10.0 mi ENE 18.4 mph 29.9 mph N/A   Overcast
1:14 AM 31.8 °F 19.9 °F 27.1 °F 83% 29.78 in 10.0 mi ENE 19.6 mph 27.6 mph N/A   Overcast
1:35 AM 31.8 °F 19.9 °F 27.0 °F 82% 29.77 in 10.0 mi ENE 19.6 mph 27.6 mph N/A   Overcast
1:55 AM 32.0 °F 18.9 °F 27.5 °F 83% 29.76 in 5.0 mi ENE 24.2 mph 31.1 mph N/A Snow Light Snow
2:15 AM 31.1 °F 18.6 °F 28.2 °F 89% 29.76 in 1.5 mi ENE 20.7 mph 28.8 mph N/A Snow Light Snow
2:35 AM 30.6 °F 18.6 °F 29.3 °F 95% 29.75 in 1.0 mi ENE 18.4 mph 27.6 mph N/A Snow Snow
2:54 AM 30.6 °F 18.2 °F 29.7 °F 96% 29.73 in 1.2 mi ENE 19.6 mph 26.5 mph N/A Snow Light Snow
3:15 AM 30.6 °F 18.2 °F 29.3 °F 95% 29.72 in 1.2 mi ENE 19.6 mph 29.9 mph N/A Snow Light Snow
3:35 AM 30.7 °F 17.8 °F 29.5 °F 95% 29.72 in 1.8 mi ENE 21.9 mph 28.8 mph N/A Snow Light Snow
3:55 AM 30.7 °F 17.8 °F 29.7 °F 96% 29.71 in 2.5 mi ENE 21.9 mph 28.8 mph N/A Snow Light Snow
4:15 AM 30.7 °F 17.8 °F 29.5 °F 95% 29.71 in 1.8 mi ENE 21.9 mph 28.8 mph N/A Snow Light Snow
4:35 AM 30.7 °F 18.8 °F 29.8 °F 96% 29.71 in 1.5 mi ENE 18.4 mph 25.3 mph N/A Snow Light Snow
4:55 AM 30.7 °F 19.6 °F 29.8 °F 96% 29.70 in 1.5 mi ENE 16.1 mph 23.0 mph N/A Snow Light Snow
5:15 AM 30.6 °F 17.9 °F 29.7 °F 96% 29.70 in 0.8 mi ENE 20.7 mph 27.6 mph N/A Snow Snow
5:35 AM 30.6 °F 17.9 °F 29.8 °F 97% 29.70 in 1.0 mi NE 20.7 mph 24.2 mph N/A Snow Light Snow
5:55 AM 30.4 °F 19.5 °F 29.7 °F 97% 29.70 in 1.2 mi NE 15.0 mph 25.3 mph N/A Snow Light Snow
6:14 AM 30.7 °F 18.5 °F 30.2 °F 98% 29.70 in 1.5 mi ENE 19.6 mph 25.3 mph N/A Snow Light Snow
6:35 AM 30.7 °F 18.8 °F 30.2 °F 98% 29.70 in 1.2 mi NE 18.4 mph 24.2 mph N/A Snow Light Snow
6:55 AM 30.7 °F 20.0 °F 30.2 °F 98% 29.70 in 1.2 mi NE 15.0 mph 25.3 mph N/A Snow Light Snow
7:15 AM 30.9 °F 19.4 °F 30.2 °F 97% 29.70 in 1.2 mi ENE 17.3 mph 24.2 mph N/A Snow Light Snow
7:35 AM 30.7 °F 18.8 °F 30.0 °F 97% 29.70 in 0.8 mi NE 18.4 mph 24.2 mph N/A Snow Light Snow
7:55 AM 30.7 °F 18.8 °F 30.0 °F 97% 29.70 in 0.8 mi NE 18.4 mph 24.2 mph N/A Snow Light Snow
8:15 AM 30.6 °F 19.4 °F 29.7 °F 96% 29.71 in 1.5 mi NE 16.1 mph 26.5 mph N/A Snow Light Snow
8:35 AM 30.2 °F 18.9 °F 29.3 °F 96% 29.71 in 1.0 mi NE 16.1 mph - N/A Snow Light Snow
8:55 AM 30.2 °F 19.3 °F 29.3 °F 96% 29.71 in 2.0 mi NE 15.0 mph - N/A Snow Light Snow
9:15 AM 30.4 °F 19.5 °F 29.5 °F 96% 29.71 in 1.2 mi NE 15.0 mph 24.2 mph N/A Snow Light Snow
9:35 AM 30.6 °F 19.0 °F 29.7 °F 96% 29.71 in 1.2 mi NE 17.3 mph - N/A Snow Light Snow
10:15 AM 30.9 °F 20.7 °F 30.0 °F 96% 29.70 in 3.0 mi NE 13.8 mph 23.0 mph N/A Snow Light Snow
10:35 AM 31.1 °F 20.5 °F 30.0 °F 96% 29.70 in 5.0 mi NE 15.0 mph 23.0 mph N/A   Overcast
10:55 AM 31.1 °F 20.5 °F 29.8 °F 95% 29.70 in 5.0 mi ENE 15.0 mph - N/A   Overcast
11:15 AM 31.1 °F 19.7 °F 29.8 °F 95% 29.69 in 4.0 mi NE 17.3 mph 20.7 mph N/A   Overcast
11:35 AM 31.1 °F 20.9 °F 30.2 °F 96% 29.69 in 2.5 mi NE 13.8 mph 20.7 mph N/A Snow Light Snow
11:55 AM 31.6 °F 22.1 °F 30.2 °F 94% 29.69 in 7.0 mi ENE 12.7 mph 18.4 mph N/A   Overcast
12:15 PM 32.0 °F 20.5 °F 30.4 °F 94% 29.69 in 4.0 mi ENE 18.4 mph - N/A Snow Light Snow
12:35 PM 32.0 °F 22.5 °F 30.7 °F 95% 29.69 in 2.5 mi ENE 12.7 mph 18.4 mph N/A Snow Light Snow
12:55 PM 32.0 °F 22.1 °F 30.9 °F 96% 29.68 in 2.0 mi ENE 13.8 mph 18.4 mph N/A Snow Light Snow
1:15 PM 32.0 °F 23.0 °F 31.1 °F 96% 29.68 in 2.5 mi ENE 11.5 mph 19.6 mph N/A Snow Light Snow
1:35 PM 32.2 °F 22.3 °F 30.7 °F 94% 29.68 in 10.0 mi ENE 13.8 mph 21.9 mph N/A   Overcast
1:55 PM 32.4 °F 23.0 °F 30.7 °F 94% 29.68 in 10.0 mi ENE 12.7 mph 23.0 mph N/A   Overcast
2:14 PM 32.4 °F 23.0 °F 30.9 °F 94% 29.68 in 5.0 mi NE 12.7 mph 16.1 mph N/A Snow Light Snow
2:35 PM 32.4 °F 22.1 °F 31.1 °F 95% 29.67 in 10.0 mi NE 15.0 mph 19.6 mph N/A   Overcast
2:55 PM 32.5 °F 22.7 °F 31.1 °F 94% 29.67 in 10.0 mi NE 13.8 mph - N/A   Overcast
3:15 PM 32.5 °F 23.2 °F 30.9 °F 94% 29.68 in 10.0 mi NE 12.7 mph 19.6 mph N/A   Overcast
3:35 PM 32.9 °F 24.7 °F 30.9 °F 92% 29.68 in 10.0 mi NE 10.4 mph - N/A   Overcast
3:55 PM 32.9 °F 24.7 °F 30.7 °F 92% 29.68 in 10.0 mi NE 10.4 mph 16.1 mph N/A   Overcast
4:15 PM 32.9 °F 23.2 °F 30.7 °F 92% 29.68 in 10.0 mi NE 13.8 mph 18.4 mph N/A   Overcast
4:35 PM 33.1 °F 24.4 °F 30.7 °F 91% 29.68 in 10.0 mi NE 11.5 mph - N/A   Overcast
4:55 PM 33.1 °F 23.4 °F 30.7 °F 91% 29.68 in 10.0 mi NE 13.8 mph 18.4 mph N/A   Overcast
5:15 PM 33.1 °F 24.4 °F 30.9 °F 92% 29.69 in 10.0 mi NE 11.5 mph 18.4 mph N/A   Overcast
5:35 PM 33.1 °F 24.4 °F 31.1 °F 92% 29.69 in 10.0 mi NE 11.5 mph 17.3 mph N/A   Overcast
5:55 PM 33.3 °F 25.7 °F 30.7 °F 90% 29.69 in 10.0 mi NE 9.2 mph - N/A   Overcast
6:15 PM 33.3 °F 25.7 °F 31.1 °F 92% 29.70 in 7.0 mi NE 9.2 mph 17.3 mph N/A   Overcast
6:35 PM 32.9 °F 25.3 °F 31.1 °F 93% 29.70 in 7.0 mi NNE 9.2 mph - N/A   Overcast
6:55 PM 32.9 °F 25.3 °F 31.8 °F 96% 29.71 in 5.0 mi NE 9.2 mph - N/A   Overcast
7:15 PM 32.5 °F 24.8 °F 32.0 °F 98% 29.71 in 4.0 mi NE 9.2 mph - N/A   Overcast
7:34 PM 32.4 °F 26.0 °F 32.0 °F 99% 29.71 in 4.0 mi NE 6.9 mph - N/A   Overcast
7:55 PM 32.5 °F 24.8 °F 32.0 °F 98% 29.71 in 7.0 mi NE 9.2 mph - N/A   Overcast
8:15 PM 32.5 °F 24.8 °F 32.0 °F 98% 29.71 in 7.0 mi NE 9.2 mph - N/A   Overcast
8:34 PM 32.4 °F 22.5 °F 31.6 °F 97% 29.71 in 7.0 mi NE 13.8 mph 17.3 mph N/A   Overcast
9:15 PM 32.0 °F 23.0 °F 31.8 °F 99% 29.71 in 5.0 mi NNE 11.5 mph - N/A   Overcast
9:35 PM 32.0 °F 24.2 °F 31.6 °F 99% 29.71 in 5.0 mi NNE 9.2 mph - N/A   Overcast
9:55 PM 32.0 °F 24.2 °F 31.6 °F 99% 29.71 in 7.0 mi North 9.2 mph - N/A   Overcast
10:15 PM 32.0 °F 24.2 °F 31.3 °F 97% 29.71 in 7.0 mi North 9.2 mph - N/A   Overcast
10:35 PM 32.0 °F 24.8 °F 31.5 °F 98% 29.71 in 5.0 mi North 8.1 mph - N/A   Overcast
10:55 PM 32.0 °F 23.6 °F 31.5 °F 98% 29.71 in 5.0 mi North 10.4 mph - N/A   Overcast
11:15 PM 32.0 °F 24.2 °F 31.5 °F 98% 29.71 in 4.0 mi North 9.2 mph - N/A   Overcast
11:35 PM 32.0 °F 23.6 °F 31.3 °F 97% 29.70 in 10.0 mi North 10.4 mph - N/A   Overcast
11:55 PM 32.0 °F 23.6 °F 30.9 °F 96% 29.70 in 7.0 mi North 10.4 mph - N/A   Overcast